This is the latest recevied weather packets stored in our database for station/object OH7GGX-14. If no packets are shown the sender has not sent any weather packets the latest 10 day(s).
| Time | Temp. | Humidity | Pressure | Rain* | Wind** | Luminosity | Snow |
|---|---|---|---|---|---|---|---|
| 1777639903 | 16.11° C | 45% | 1016 hPa | 0 mm | - | - | - |
| 1777639303 | 16.67° C | 45% | 1016.1 hPa | 0 mm | - | - | - |
| 1777638703 | 16.11° C | 45% | 1016.3 hPa | 0 mm | - | - | - |
| 1777638103 | 16.67° C | 45% | 1016.4 hPa | 0 mm | - | - | - |
| 1777637503 | 16.11° C | 46% | 1016.6 hPa | 0 mm | - | - | - |
| 1777636903 | 15.56° C | 47% | 1016.7 hPa | 0 mm | - | - | - |
| 1777636303 | 15.56° C | 47% | 1016.8 hPa | 0 mm | - | - | - |
| 1777635703 | 15.56° C | 47% | 1016.7 hPa | 0 mm | - | - | - |
| 1777635103 | 15.56° C | 46% | 1016.9 hPa | 0 mm | - | - | - |
| 1777634503 | 15.56° C | 47% | 1017.1 hPa | 0 mm | - | - | - |
| 1777633903 | 15.56° C | 46% | 1017.1 hPa | 0 mm | - | - | - |
| 1777633303 | 15.56° C | 46% | 1017.3 hPa | 0 mm | - | - | - |
| 1777632703 | 15.56° C | 48% | 1017.3 hPa | 0 mm | - | - | - |
| 1777632103 | 15° C | 50% | 1017.5 hPa | 0 mm | - | - | - |
| 1777631503 | 14.44° C | 51% | 1017.6 hPa | 0 mm | - | - | - |
| 1777630903 | 14.44° C | 52% | 1017.8 hPa | 0 mm | - | - | - |
| 1777630303 | 14.44° C | 52% | 1017.8 hPa | 0 mm | - | - | - |
| 1777629703 | 14.44° C | 52% | 1017.9 hPa | 0 mm | - | - | - |
| 1777629103 | 14.44° C | 55% | 1017.9 hPa | 0 mm | - | - | - |
| 1777628503 | 13.89° C | 57% | 1018.2 hPa | 0 mm | - | - | - |
| 1777627903 | 13.89° C | 57% | 1018.3 hPa | 0 mm | - | - | - |
| 1777627303 | 13.33° C | 59% | 1018.4 hPa | 0 mm | - | - | - |
| 1777626703 | 13.33° C | 59% | 1018.6 hPa | 0 mm | - | - | - |
| 1777626103 | 13.33° C | 60% | 1018.8 hPa | 0 mm | - | - | - |
| 1777625503 | 12.78° C | 61% | 1018.9 hPa | 0 mm | - | - | - |
* Rain latest hour (hover to see other rain measurements)
** Current wind speed in m/s (hover to see current wind gust speed)